INNOSAT 16 (RS92S7)

Last updated on Mon Sep 21 2026 00:03:15 GMT+0000 (Coordinated Universal Time)

1 64878U 25155C 26263.61221895 .00003997 00000+0 15650-3 0 9991 2 64878 97.4687 230.5608 0009423 199.2260 160.8625 15.26358017 95221
UTC large
Height (km)
Speed (km/s)
/
Latitude / Longitude
Inclination (degrees)
Orbital Period (minutes)
Azimuth
Elevation
Range (km)
Doppler Factor

Next 0 passes for location: London (51.5072 / 0.1276)

No passes found over London.
INNOSAT 16 (RS92S7)